TimeHST,TemperatureF,Dew PointF,Humidity,Sea Level PressureIn,VisibilityMPH,Wind Direction,Wind SpeedMPH,Gust SpeedMPH,PrecipitationIn,Events,Conditions,WindDirDegrees,DateUTC
12:53 AM,72.0,64.9,78,30.03,10.0,WSW,5.8,-,N/A,,Overcast,240,2013-10-01 10:53:00
1:53 AM,72.0,64.0,76,30.01,10.0,WSW,8.1,-,N/A,,Mostly Cloudy,240,2013-10-01 11:53:00
2:53 AM,71.1,63.0,75,29.99,10.0,SW,5.8,-,N/A,,Scattered Clouds,230,2013-10-01 12:53:00
3:53 AM,71.1,64.0,78,29.99,10.0,SSW,5.8,-,N/A,,Scattered Clouds,210,2013-10-01 13:53:00
4:53 AM,71.1,64.9,81,30.00,10.0,Calm,Calm,-,N/A,,Overcast,0,2013-10-01 14:53:00
5:53 AM,71.1,64.9,81,30.01,10.0,WSW,8.1,-,N/A,,Mostly Cloudy,240,2013-10-01 15:53:00
6:53 AM,72.0,64.0,76,30.02,10.0,WSW,6.9,-,N/A,,Mostly Cloudy,240,2013-10-01 16:53:00
7:53 AM,78.1,64.0,62,30.03,10.0,WSW,4.6,-,N/A,,Partly Cloudy,240,2013-10-01 17:53:00
8:53 AM,82.0,69.1,65,30.04,10.0,Variable,3.5,-,N/A,,Scattered Clouds,0,2013-10-01 18:53:00
9:53 AM,82.0,69.1,65,30.04,10.0,Calm,Calm,-,N/A,,Mostly Cloudy,0,2013-10-01 19:53:00
10:53 AM,84.0,69.1,61,30.04,10.0,East,6.9,-,N/A,,Scattered Clouds,90,2013-10-01 20:53:00
11:53 AM,84.9,69.1,59,30.01,10.0,East,11.5,-,N/A,,Scattered Clouds,100,2013-10-01 21:53:00
12:53 PM,84.0,68.0,58,30.00,10.0,ESE,9.2,-,N/A,,Scattered Clouds,120,2013-10-01 22:53:00
1:53 PM,84.9,70.0,61,29.98,10.0,SE,10.4,-,N/A,,Scattered Clouds,130,2013-10-01 23:53:00
2:53 PM,82.9,69.1,63,29.96,10.0,ESE,9.2,-,N/A,,Mostly Cloudy,120,2013-10-02 00:53:00
3:53 PM,82.0,69.1,65,29.96,10.0,ESE,9.2,-,N/A,,Mostly Cloudy,110,2013-10-02 01:53:00
4:10 PM,81.0,70.0,69,29.97,10.0,SE,10.4,-,N/A,,Mostly Cloudy,130,2013-10-02 02:10:00
4:17 PM,80.1,70.0,71,29.97,10.0,ESE,10.4,-,N/A,,Mostly Cloudy,120,2013-10-02 02:17:00
4:53 PM,80.1,70.0,71,29.97,10.0,ESE,11.5,19.6,N/A,,Mostly Cloudy,120,2013-10-02 02:53:00
5:53 PM,78.1,68.0,71,29.98,10.0,South,4.6,-,N/A,,Overcast,170,2013-10-02 03:53:00
6:53 PM,77.0,69.1,76,29.99,10.0,SW,4.6,-,N/A,,Overcast,230,2013-10-02 04:53:00
7:53 PM,75.9,70.0,82,30.01,10.0,WSW,4.6,-,N/A,,Overcast,240,2013-10-02 05:53:00
8:53 PM,75.9,70.0,82,30.02,10.0,SW,4.6,-,0.00,Rain,Light Rain,230,2013-10-02 06:53:00
9:53 PM,75.0,69.1,82,30.02,10.0,SW,5.8,-,0.00,,Overcast,220,2013-10-02 07:53:00
10:53 PM,75.0,69.1,82,30.01,10.0,Calm,Calm,-,N/A,,Mostly Cloudy,0,2013-10-02 08:53:00
11:53 PM,73.9,66.0,76,30.01,10.0,Calm,Calm,-,N/A,,Scattered Clouds,0,2013-10-02 09:53:00